Location: Aranbee
(34.0885°N, 118.2342°W)
Time: 05:16:46
(UTC+00:00)

Transit 2A - Visible Passes

Search period start: 27 November 2020 00:00
Search period end: 07 December 2020 00:00
Orbit: 595 x 964 km, 66.7° (Epoch: 26 November)

Date Brightness Start Highest point End Pass type
(mag) Time Alt. Az. Time Alt. Az. Time Alt. Az.
27 Nov 6.6 01:26:27 10° SSW 01:32:49 78° WNW 01:39:01 10° NNE visible
27 Nov 8.9 03:14:04 10° WNW 03:16:56 13° NW 03:19:45 10° NNW visible
28 Nov 8.7 02:38:10 10° W 02:42:27 19° NW 02:46:36 10° N visible
29 Nov 8.3 02:02:52 10° WSW 02:08:02 26° NW 02:13:03 10° N visible
30 Nov 7.8 01:27:56 10° WSW 01:33:42 36° WNW 01:39:16 10° N visible
02 Dec 8.8 02:06:59 10° WNW 02:09:22 12° NW 02:11:42 10° NNW visible
03 Dec 8.6 01:30:53 10° W 01:34:52 17° NW 01:38:45 10° N visible
